13h49 EDT


 

Suivi/Infos de l'aéroport


-ou-


 

Suivi des vols en temps réel9Y-TTC ✈ 01-05-2013 ✈ TTCP / TAB - TTPP / POS

Thumbnail
9Y-TTC / BWA1541
Unknown Owner · Trinidad & Tobago
Crown Point ( – info)
Scarborough, Tobago TT
Piarco Int'l ( – info)
Port-d'Espagne TT
Prévu: 21h45 AST
Prévu: 21h50 AST
Durée: 18 minutes
mercredi, 1 mai 2013
Statut Arrivé il y a 50 semaines (journal de vol & graphique)
Avion Aerospatiale ATR-42-300 (bi-turbopropulseur) (AT43 – photos)
Vitesse Plan de vol: 532 kts (graphique)
Distance En ligne droite 83 km
Une partie au moins de ce vol se déroule hors de la zone de services primaire de FlightAware. Pour en savoir plus sur la couverture et la zone de services de FlightAware.
JOURNAL DE L'ACTIVITE
Vous voulez une recherche complète sur l'historique de 9Y-TTC depuis 1998? Achetez maintenant. Recevez-le dans l'heure.
Date Avion Provenance Destination Départ Arrivée Durée
19-04-2014 AT43Crown Point ()Piarco Int'l () 13h13 AST 13h31 AST 0:18
19-04-2014 AT43Piarco Int'l ()Crown Point () 12h29 AST 12h46 AST 0:16
19-04-2014 AT43Crown Point ()Piarco Int'l () 11h14 AST 11h26 AST 0:11
19-04-2014 AT43Piarco Int'l ()Crown Point () 10h16 AST 10h30 AST 0:13
19-04-2014 AT43Crown Point ()Piarco Int'l () 08h58 AST 09h15 AST 0:17
19-04-2014 AT43Piarco Int'l ()Crown Point () 08h14 AST 08h30 AST 0:16
19-04-2014 AT43Crown Point ()Piarco Int'l () 07h11 AST 07h30 AST 0:19
19-04-2014 AT43Piarco Int'l ()Crown Point () 06h25 AST 06h38 AST 0:12
19-04-2014 AT43Crown Point ()Piarco Int'l () 01h20 AST 02h00 AST (?) 0:40
19-04-2014 AT43Piarco Int'l ()Crown Point () 00h26 AST 00h40 AST (+1) Inconnu
18-04-2014 AT43Crown Point ()Piarco Int'l () 23h29 AST 23h46 AST 0:17
18-04-2014 AT43Piarco Int'l ()Crown Point () 22h47 AST 23h02 AST 0:14
18-04-2014 AT43Crown Point ()Piarco Int'l () 21h35 AST 21h53 AST 0:18
18-04-2014 AT43Piarco Int'l ()Crown Point () 20h44 AST 21h01 AST 0:16
18-04-2014 AT43Crown Point ()Piarco Int'l () 19h28 AST 19h40 AST 0:11
18-04-2014 AT43Piarco Int'l ()Crown Point () 18h33 AST 18h50 AST 0:17
18-04-2014 AT43Crown Point ()Piarco Int'l () 17h40 AST 17h58 AST 0:18
18-04-2014 AT43Piarco Int'l ()Crown Point () 16h54 AST 17h10 AST 0:15
18-04-2014 AT43Crown Point ()Piarco Int'l () 15h54 AST 16h12 AST 0:18
18-04-2014 AT43Piarco Int'l ()Crown Point () 15h07 AST 15h23 AST 0:15
18-04-2014 AT43Crown Point ()Piarco Int'l () 13h18 AST 13h35 AST 0:17
18-04-2014 AT43Piarco Int'l ()Crown Point () 12h29 AST 12h44 AST 0:14
18-04-2014 AT43Crown Point ()Piarco Int'l () 11h13 AST 11h36 AST 0:23
18-04-2014 AT43Piarco Int'l ()Crown Point () 10h26 AST 10h40 AST 0:13
18-04-2014 AT43Crown Point ()Piarco Int'l () 09h25 AST 09h45 AST 0:20
18-04-2014 AT43Piarco Int'l ()Crown Point () 08h25 AST 08h41 AST 0:15
18-04-2014 AT43Crown Point ()Piarco Int'l () 07h08 AST 07h31 AST 0:23
18-04-2014 AT43Piarco Int'l ()Crown Point () 06h19 AST 06h36 AST 0:16
17-04-2014 AT43Crown Point ()Piarco Int'l () 21h02 AST 21h19 AST 0:17
17-04-2014 AT43Piarco Int'l ()Crown Point () 19h46 AST 20h07 AST 0:21
17-04-2014 AT43Crown Point ()Piarco Int'l () 01h37 AST 01h54 AST 0:17
17-04-2014 AT43Piarco Int'l ()Crown Point () 00h52 AST 01h04 AST 0:11
16-04-2014 AT43Crown Point ()Piarco Int'l () 23h25 AST 23h45 AST (?) 0:20
16-04-2014 AT43Piarco Int'l ()Crown Point () 22h43 AST 22h56 AST 0:12
16-04-2014 AT43Crown Point ()Piarco Int'l () 20h44 AST 21h02 AST 0:18
16-04-2014 AT43Piarco Int'l ()Crown Point () 19h55 AST 20h11 AST 0:16
16-04-2014 AT43Crown Point ()Piarco Int'l () 18h48 AST 19h08 AST 0:20
16-04-2014 AT43Piarco Int'l ()Crown Point () 17h52 AST 18h06 AST 0:13
16-04-2014 AT43Crown Point ()Piarco Int'l () 16h46 AST 17h04 AST 0:18
16-04-2014 AT43Piarco Int'l ()Crown Point () 15h54 AST 16h11 AST 0:17
16-04-2014 AT43Crown Point ()Piarco Int'l () 14h35 AST 14h54 AST 0:19
16-04-2014 AT43Piarco Int'l ()Crown Point () 13h45 AST 13h59 AST 0:13
16-04-2014 AT43Int'l Maiquetía ~ Simón Bolívar ()Piarco Int'l () 09h13 VET 11h09 AST 1:26
16-04-2014 AT43Piarco Int'l ()Int'l Maiquetía ~ Simón Bolívar () 07h05 AST 08h11 VET 1:35
15-04-2014 AT43Int'l Grantley-Adams ()Piarco Int'l () 21h13 AST 22h08 AST 0:55
15-04-2014 AT43Piarco Int'l ()Int'l Grantley-Adams () 19h32 AST 20h20 AST 0:47
15-04-2014 AT43George F. L. Charles ()Piarco Int'l () 15h45 AST 16h44 AST 0:59
15-04-2014 AT43Piarco Int'l ()George F. L. Charles () 14h16 AST 15h10 AST 0:53
15-04-2014 AT43Crown Point ()Piarco Int'l () 11h08 AST 11h25 AST 0:17
15-04-2014 AT43Piarco Int'l ()Crown Point () 10h11 AST 10h30 AST 0:19
15-04-2014 AT43Crown Point ()Piarco Int'l () 08h57 AST 09h19 AST 0:22
15-04-2014 AT43Piarco Int'l ()Crown Point () 07h59 AST 08h15 AST 0:16
15-04-2014 AT43Crown Point ()Piarco Int'l () 07h01 AST 07h17 AST 0:16
15-04-2014 AT43Piarco Int'l ()Crown Point () 06h10 AST 06h28 AST 0:18
15-04-2014 AT43Crown Point ()Piarco Int'l () 02h00 AST 02h18 AST 0:18
15-04-2014 AT43Piarco Int'l ()Crown Point () 01h21 AST 01h35 AST 0:13
15-04-2014 AT43Crown Point ()Piarco Int'l () 00h31 AST 00h50 AST 0:19
14-04-2014 AT43Piarco Int'l ()Crown Point () 23h33 AST 23h48 AST 0:14
14-04-2014 AT43Crown Point ()Piarco Int'l () 20h39 AST 20h53 AST 0:13
14-04-2014 AT43Piarco Int'l ()Crown Point () 19h43 AST 19h58 AST 0:14
14-04-2014 AT43Crown Point ()Piarco Int'l () 18h44 AST 19h02 AST 0:18
14-04-2014 AT43Piarco Int'l ()Crown Point () 17h56 AST 18h13 AST 0:16
14-04-2014 AT43Crown Point ()Piarco Int'l () 16h37 AST 16h57 AST 0:20
14-04-2014 AT43Piarco Int'l ()Crown Point () 15h45 AST 16h01 AST 0:15
14-04-2014 AT43Crown Point ()Piarco Int'l () 14h50 AST 15h09 AST 0:19
14-04-2014 AT43Piarco Int'l ()Crown Point () 14h01 AST 14h17 AST 0:16
14-04-2014 AT43Crown Point ()Piarco Int'l () 12h14 AST 12h34 AST 0:20
14-04-2014 AT43Piarco Int'l ()Crown Point () 11h22 AST 11h35 AST 0:12
14-04-2014 AT43Crown Point ()Piarco Int'l () 10h08 AST 10h27 AST 0:19
14-04-2014 AT43Piarco Int'l ()Crown Point () 09h15 AST 09h29 AST 0:14
14-04-2014 AT43Point Salines Int'l ()Piarco Int'l () 07h32 AST 07h52 AST 0:19
14-04-2014 AT43Piarco Int'l ()Point Salines Int'l () 06h30 AST 07h00 AST 0:30
13-04-2014 AT43Piarco Int'l ()Crown Point () 19h44 AST 19h58 AST 0:13
13-04-2014 AT43Crown Point ()Piarco Int'l () 19h29 AST 20h55 AST 1:25
13-04-2014 AT43Crown Point ()Piarco Int'l () 18h33 AST 18h48 AST 0:14
13-04-2014 AT43Piarco Int'l ()Crown Point () 17h33 AST 17h47 AST 0:13
13-04-2014 AT43Crown Point ()Piarco Int'l () 16h29 AST 16h46 AST 0:17
13-04-2014 AT43Piarco Int'l ()Crown Point () 15h37 AST 15h52 AST 0:14
13-04-2014 AT43Crown Point ()Piarco Int'l () 14h32 AST 14h50 AST 0:18
13-04-2014 AT43Piarco Int'l ()Crown Point () 13h48 AST 14h02 AST 0:13
13-04-2014 AT43Crown Point ()Piarco Int'l () 12h29 AST 12h51 AST 0:22
13-04-2014 AT43Piarco Int'l ()Crown Point () 11h40 AST 11h54 AST 0:13
13-04-2014 AT43Crown Point ()Piarco Int'l () 10h39 AST 10h55 AST 0:16
13-04-2014 AT43Piarco Int'l ()Crown Point () 09h46 AST 10h02 AST 0:15
13-04-2014 AT43Int'l Grantley-Adams ()Piarco Int'l () 07h58 AST 08h53 AST 0:55
13-04-2014 AT43Piarco Int'l ()Int'l Grantley-Adams () 06h31 AST 07h18 AST 0:46
11-04-2014 AT43Crown Point ()Piarco Int'l () 08h47 AST 09h05 AST 0:18
11-04-2014 AT43Piarco Int'l ()Crown Point () 07h52 AST 08h10 AST 0:17
11-04-2014 AT43Crown Point ()Piarco Int'l () 06h56 AST 07h10 AST 0:13
11-04-2014 AT43Piarco Int'l ()Crown Point () 05h55 AST 06h11 AST 0:15
08-04-2014 AT43Crown Point ()Piarco Int'l () 12h29 AST 12h48 AST 0:19
08-04-2014 AT43Piarco Int'l ()Crown Point () 11h35 AST 11h51 AST 0:16
08-04-2014 AT43Crown Point ()Piarco Int'l () 10h11 AST 10h30 AST 0:19
08-04-2014 AT43Piarco Int'l ()Crown Point () 09h20 AST 09h37 AST 0:16
08-04-2014 AT43Int'l Grantley-Adams ()Piarco Int'l () 07h17 AST 08h09 AST 0:52
08-04-2014 AT43Piarco Int'l ()Int'l Grantley-Adams () 05h53 AST 06h44 AST 0:50
Les membres inscrits (l'inscription est gratuite et facile!) voient 4 months d'historique. S'inscrire